TimeEDT,TemperatureF,Dew PointF,Humidity,Sea Level PressureIn,VisibilityMPH,Wind Direction,Wind SpeedMPH,Gust SpeedMPH,PrecipitationIn,Events,Conditions,WindDirDegrees,DateUTC
12:14 AM,64.8,63.0,94,29.67,10.0,NNE,4.6,-,N/A,,Overcast,20,2013-06-29 04:14:00
12:34 AM,63.9,62.4,95,29.67,10.0,NNW,3.5,-,N/A,,Overcast,340,2013-06-29 04:34:00
12:55 AM,63.5,62.6,97,29.67,10.0,NNW,3.5,-,N/A,,Overcast,340,2013-06-29 04:55:00
1:14 AM,63.1,62.6,98,29.67,10.0,North,5.8,-,N/A,,Overcast,10,2013-06-29 05:14:00
1:34 AM,63.1,61.7,95,29.67,10.0,North,6.9,-,N/A,,Overcast,10,2013-06-29 05:34:00
1:55 AM,63.0,61.7,96,29.67,10.0,North,6.9,-,N/A,Rain,Rain,10,2013-06-29 05:55:00
2:14 AM,62.6,61.7,97,29.67,10.0,North,8.1,-,N/A,Rain,Light Rain,10,2013-06-29 06:14:00
2:34 AM,62.1,61.9,99,29.67,10.0,North,6.9,-,N/A,,Light Drizzle,360,2013-06-29 06:34:00
2:54 AM,62.1,61.9,99,29.66,10.0,North,8.1,-,N/A,,Overcast,10,2013-06-29 06:54:00
3:14 AM,62.1,61.9,99,29.67,10.0,NNE,8.1,-,N/A,,Overcast,20,2013-06-29 07:14:00
3:34 AM,62.6,61.9,97,29.67,10.0,NNE,6.9,-,N/A,,Overcast,20,2013-06-29 07:34:00
3:54 AM,62.4,61.7,97,29.67,10.0,NNE,6.9,-,N/A,,Light Drizzle,30,2013-06-29 07:54:00
4:14 AM,62.2,61.7,98,29.67,10.0,NNE,6.9,-,N/A,Rain,Light Rain,30,2013-06-29 08:14:00
4:34 AM,62.1,61.7,99,29.67,10.0,NNE,6.9,-,N/A,Rain,Light Rain,30,2013-06-29 08:34:00
4:54 AM,61.7,61.2,98,29.67,10.0,North,8.1,-,N/A,,Light Drizzle,10,2013-06-29 08:54:00
5:14 AM,61.7,60.8,97,29.67,10.0,NNE,6.9,-,N/A,,Mostly Cloudy,20,2013-06-29 09:14:00
5:34 AM,61.7,60.4,96,29.67,10.0,NNE,4.6,-,N/A,,Scattered Clouds,20,2013-06-29 09:34:00
5:54 AM,61.2,60.1,96,29.67,10.0,NE,5.8,-,N/A,,Scattered Clouds,50,2013-06-29 09:54:00
6:15 AM,61.2,58.5,91,29.68,10.0,NE,5.8,-,N/A,,Scattered Clouds,50,2013-06-29 10:15:00
6:34 AM,61.0,59.0,93,29.69,10.0,Calm,Calm,-,N/A,,Mostly Cloudy,0,2013-06-29 10:34:00
6:54 AM,60.8,59.7,96,29.69,10.0,NNE,5.8,-,N/A,,Mostly Cloudy,20,2013-06-29 10:54:00
7:15 AM,61.0,58.1,90,29.70,10.0,NNE,10.4,-,N/A,,Scattered Clouds,30,2013-06-29 11:15:00
7:34 AM,61.5,57.9,88,29.70,10.0,NNE,8.1,-,N/A,,Scattered Clouds,30,2013-06-29 11:34:00
7:54 AM,61.7,58.1,88,29.71,10.0,NE,5.8,-,N/A,,Mostly Cloudy,50,2013-06-29 11:54:00
8:15 AM,61.9,58.3,88,29.70,10.0,NNE,6.9,-,N/A,,Scattered Clouds,30,2013-06-29 12:15:00
8:34 AM,62.2,57.9,86,29.71,10.0,NNE,6.9,-,N/A,,Clear,30,2013-06-29 12:34:00
8:54 AM,62.6,58.1,85,29.71,10.0,NNE,6.9,-,N/A,,Clear,30,2013-06-29 12:54:00
9:14 AM,63.1,57.7,83,29.72,10.0,NNE,5.8,-,N/A,,Clear,30,2013-06-29 13:14:00
9:34 AM,63.1,57.7,83,29.72,10.0,NNE,6.9,-,N/A,,Clear,20,2013-06-29 13:34:00
9:54 AM,64.0,58.1,81,29.72,10.0,North,4.6,-,N/A,,Clear,10,2013-06-29 13:54:00
10:14 AM,64.4,57.6,78,29.72,10.0,North,6.9,-,N/A,,Clear,360,2013-06-29 14:14:00
10:34 AM,64.6,57.9,79,29.71,10.0,North,8.1,-,N/A,,Clear,350,2013-06-29 14:34:00
10:55 AM,65.3,58.1,77,29.71,10.0,NNW,6.9,-,N/A,,Clear,340,2013-06-29 14:55:00
11:14 AM,66.0,58.3,76,29.71,10.0,North,8.1,-,N/A,,Clear,350,2013-06-29 15:14:00
11:34 AM,66.2,58.3,76,29.72,10.0,North,9.2,-,N/A,,Clear,360,2013-06-29 15:34:00
11:55 AM,65.3,58.8,80,29.72,10.0,North,8.1,-,N/A,,Mostly Cloudy,360,2013-06-29 15:55:00
12:14 PM,66.2,59.0,78,29.73,10.0,North,5.8,-,N/A,,Overcast,350,2013-06-29 16:14:00
12:34 PM,64.6,58.8,82,29.74,10.0,North,5.8,-,N/A,,Overcast,350,2013-06-29 16:34:00
12:55 PM,66.0,59.0,78,29.74,10.0,North,9.2,-,N/A,,Overcast,360,2013-06-29 16:55:00
1:14 PM,67.5,58.8,74,29.74,10.0,North,9.2,-,N/A,,Overcast,360,2013-06-29 17:14:00
1:34 PM,67.1,59.0,75,29.74,10.0,North,5.8,-,N/A,,Overcast,350,2013-06-29 17:34:00
1:55 PM,67.5,59.9,77,29.74,10.0,North,6.9,-,N/A,,Overcast,350,2013-06-29 17:55:00
2:14 PM,67.6,60.1,77,29.74,10.0,North,8.1,-,N/A,,Overcast,360,2013-06-29 18:14:00
2:34 PM,67.8,59.4,74,29.74,10.0,North,9.2,-,N/A,,Overcast,360,2013-06-29 18:34:00
2:54 PM,68.7,59.4,72,29.74,10.0,North,10.4,16.1,N/A,,Mostly Cloudy,10,2013-06-29 18:54:00
3:14 PM,68.2,59.0,72,29.74,10.0,North,11.5,18.4,N/A,,Clear,10,2013-06-29 19:14:00
3:34 PM,68.9,59.0,71,29.75,10.0,North,10.4,17.3,N/A,,Clear,10,2013-06-29 19:34:00
3:54 PM,69.1,58.8,70,29.75,10.0,North,12.7,19.6,N/A,,Clear,360,2013-06-29 19:54:00
4:14 PM,68.0,58.3,71,29.76,10.0,North,10.4,17.3,N/A,,Clear,360,2013-06-29 20:14:00
4:34 PM,67.1,58.1,73,29.76,10.0,North,10.4,-,N/A,,Clear,360,2013-06-29 20:34:00
4:54 PM,68.0,58.3,71,29.77,10.0,North,11.5,17.3,N/A,,Clear,360,2013-06-29 20:54:00
5:14 PM,68.9,58.5,69,29.77,10.0,North,10.4,-,N/A,,Scattered Clouds,360,2013-06-29 21:14:00
5:35 PM,68.5,58.5,70,29.77,10.0,North,8.1,-,N/A,,Scattered Clouds,360,2013-06-29 21:35:00
5:54 PM,70.0,58.6,67,29.77,10.0,North,8.1,-,N/A,,Scattered Clouds,10,2013-06-29 21:54:00
6:14 PM,69.4,58.5,68,29.77,10.0,North,9.2,-,N/A,,Scattered Clouds,350,2013-06-29 22:14:00
6:35 PM,69.8,58.3,67,29.78,10.0,North,8.1,-,N/A,,Mostly Cloudy,350,2013-06-29 22:35:00
6:54 PM,69.1,58.1,68,29.78,10.0,NNW,8.1,-,N/A,,Mostly Cloudy,340,2013-06-29 22:54:00
7:14 PM,68.5,58.3,70,29.78,10.0,NNW,8.1,-,N/A,,Scattered Clouds,330,2013-06-29 23:14:00
7:34 PM,68.7,58.5,70,29.79,10.0,NNW,6.9,-,N/A,,Scattered Clouds,340,2013-06-29 23:34:00
7:54 PM,67.6,58.8,73,29.80,10.0,NNW,5.8,-,N/A,,Scattered Clouds,340,2013-06-29 23:54:00
8:15 PM,67.5,59.2,75,29.80,10.0,NNW,4.6,-,N/A,,Clear,340,2013-06-30 00:15:00
8:34 PM,66.4,59.2,78,29.80,10.0,NNW,3.5,-,N/A,,Clear,340,2013-06-30 00:34:00
8:54 PM,66.7,59.0,76,29.80,10.0,North,5.8,-,N/A,,Clear,360,2013-06-30 00:54:00
9:15 PM,65.5,58.8,79,29.81,10.0,North,4.6,-,N/A,,Clear,360,2013-06-30 01:15:00
9:34 PM,64.8,58.1,79,29.81,10.0,North,4.6,-,N/A,,Clear,350,2013-06-30 01:34:00
9:54 PM,64.0,57.4,79,29.82,1.5,NW,3.5,-,N/A,,Haze,320,2013-06-30 01:54:00
10:14 PM,64.2,57.0,77,29.82,10.0,NW,5.8,-,N/A,,Clear,320,2013-06-30 02:14:00
10:34 PM,63.0,57.4,82,29.83,10.0,NW,6.9,-,N/A,,Clear,310,2013-06-30 02:34:00
10:54 PM,63.5,56.8,79,29.83,10.0,NW,6.9,-,N/A,,Clear,320,2013-06-30 02:54:00
11:14 PM,64.0,56.5,76,29.84,10.0,NNW,6.9,-,N/A,,Clear,330,2013-06-30 03:14:00
11:34 PM,64.4,56.3,75,29.84,10.0,NW,6.9,-,N/A,,Clear,320,2013-06-30 03:34:00
11:55 PM,63.5,56.3,77,29.85,10.0,NW,3.5,-,N/A,,Clear,320,2013-06-30 03:55:00